Гуля

Россия / Забайкальский край     54°40′22″N   120°59′55″E
темп.,
°C
ветер,
м/с
пор.,
м/с
влажн.,
%
обл.,
%
осадки,
мм/ч
давл.,
гПа
погр.,
м
17 мая, пн
пн1700:00+4зсз2843100 0.0 1003338
03:000зюз38568 0.0 1004181
06:000з1252100 0.0 100585
09:00+6ссз1337100 0.0 10041161
12:00+10з2624100 0.0 10013037
15:00+10з3629100 0.0 9992653
18:00+7с446875 0.4 999816
21:00+3ссв2392100 0.7 1001268
18 мая, вт
вт1800:00+1ссв1194100 0.0 1002150
03:00−1с2696100 3.9 1003431
06:00−2сз2494100 0.6 1004404
09:000ссз3584100 1.0 1005852
12:00+3сз365997 0.5 10041812
15:00+5ссз364797 0.8 10032038
18:00+6сз1241100 0.1 10021794
21:00+1зюз1168100 0.3 100410
19 мая, ср
ср1900:000ю228234 0.2 100450
03:00−4ююз119775 0.2 100516
06:00−4зюз119089 0.0 100547
09:00+4ююз125998 0.0 1003704
12:00+8з2731100 0.1 10012759
15:00+10зюз2629100 0.1 9982865
18:00+8всв3349100 0.1 999850
21:00+2в227713 0.1 100241
20 мая, чт
чт2000:00−1ссв11925 0.0 100412
03:00−2с119593 0.0 100511
06:00−1ссз118841 0.0 100652
09:00+5ссв2263100 0.0 1007916
12:00+7св3257100 0.0 10061217
15:00+7в1155100 0.1 10071155
18:00+7всв2255100 0.0 1007732
21:00+3в1174100 0.0 100911
21 мая, пт
пт2100:000в119184 0.0 101110
03:00−1св119595 0.0 101110
06:00+2ссв1283100 0.0 1009122
09:00+4всв4793100 1.8 1007563
12:00+5в4992100 3.2 1004815
15:00+5всв5990100 4.1 1002597
18:00+9всв6117670 0.0 998845
21:00+8всв51385100 1.4 995558